TITAN 3C TRANSTAGE R/B

基本信息
目录编号:
50000
目录名称:
TITAN 3C TRANSTAGE R/B
国际标识:
1970-027C
轨道中心:
EARTH
物体状态:
在轨
发射日期:
1970-04-08 UTC
国别:
美国 (US)
轨道信息
数据来源: 国际轨道数据
星历时间: 2026-07-11T04:07:20+0800
半长轴: 72715.476km
偏心率: 0.6905227
轨道倾角: 45.631°
近地点辐角: 201.698°
升交点赤经: 69.287°
平近点角: 0.332°
近地点: 16125.652km
远地点: 116549.026km
周期: 3252.370分钟
每日圈数: 0.442754
详细信息
发射场:
AFETR
轨道高度:
MEO
数据来源:
AOE Integration Group
参考系:
TEME
时间系统:
UTC
历元类型:
SGP4
2D轨道图
3D轨道图
轨道高度分析图
轨道倾角分析图
轨道综合分析图
查看轨道综合分析图